Retour au catalogue

DELTA 1 DEB

ActifSSO
NORAD 19590·DEBRIS·🇺🇸 United States

Lancé Nov 6, 1973 depuis Vandenberg Space Force Base

Loading…

Prochains Passages (prochaines 24 heures)

TLE

VieillissantSource: Space-Track

Époque: Sep 7, 2026, 00:15 UTC

1 19590U 73086HG  26250.01083640 -.00000035  00000-0  94618-4 0  9996
2 19590 102.4548 272.6462 0045579 268.0006 120.8248 12.31852813656232

Suivez DELTA 1 DEB en temps réel avec AllMySat

Download on the App Store